Weather History for Saranac Lake, NY

Change the Weather History Date:

Monday, January 7, 2013

  Actual Average Record
Temperature  
Mean Temperature 17 °F 14 °F  
Max Temperature 29 °F 25 °F 48 °F (2008)
Min Temperature 4 °F 3 °F -21 °F (1988)
Degree Days  
Heating Degree Days 48 51  
Month to date heating degree days 376 357  
Since 1 July heating degree days 3750 4056  
Moisture  
Dew Point 12 °F    
Average Humidity 85    
Maximum Humidity 96    
Minimum Humidity 73    
Precipitation  
Precipitation T in 0.07 in 0.85 in (1954)
Month to date precipitation 0.18 0.52  
Year to date precipitation 0.18 0.52  
Sea Level Pressure  
Sea Level Pressure 30.22 in    
Wind  
Wind Speed 5 mph (WSW)    
Max Wind Speed 16 mph    
Max Gust Speed 21 mph    
Visibility 7 miles    
Events Snow    
T = Trace of Precipitation, MM = Missing Value Source: NWS Daily Summary

Daily Weather History Graph

Daily Weather History Graph

Search for Another Location

Airport:

Trip Planner

Search our weather history database for the weather conditions in past years. The results will help you decide how hot, cold, wet, or windy it might be!

Date:

Astronomy

Jan. 07, 2013 Rise Set
Actual Time 7:32 AM EST 4:34 PM EST
Civil Twilight 6:59 AM EST 5:07 PM EST
Nautical Twilight 6:23 AM EST 5:43 PM EST
Astronomical Twilight 5:48 AM EST 6:18 PM EST
Moon 2:50 AM EST (1/7) 12:45 PM EST (1/7)
Length of Visible Light 10h 07m
Length of Day
9h 01m
Waning Crescent, 23% of the Moon is Illuminated
Jan 7
Waning Crescent
Jan 11
New
Jan 18
First Quarter
Jan 26
Full
Feb 3
Last Quarter

Hourly Weather History & Observations

Time (EST) Temp. Windchill Dew Point Humidity Pressure Visibility Wind Dir Wind Speed Gust Speed Precip Events Conditions
12:51 AM 24.1 °F 17.0 °F 21.0 °F 88% 29.99 in 7.0 mi NNW 5.8 mph - 0.00 in   Overcast
1:23 AM 21.2 °F 16.4 °F 17.6 °F 86% 29.94 in 7.0 mi Variable 3.5 mph - N/A   Overcast
1:49 AM 19.4 °F - 17.6 °F 93% 29.97 in 7.0 mi Calm Calm - N/A   Overcast
1:51 AM 19.0 °F 13.9 °F 17.1 °F 92% 30.05 in 7.0 mi Variable 3.5 mph - N/A   Overcast
3:51 AM 15.1 °F - 12.9 °F 91% 30.13 in 10.0 mi Calm Calm - N/A   Overcast
4:51 AM 15.1 °F 7.7 °F 12.0 °F 88% 30.17 in 10.0 mi North 4.6 mph - N/A   Overcast
5:51 AM 14.0 °F 6.5 °F 12.0 °F 92% 30.20 in 9.0 mi West 4.6 mph - N/A   Overcast
6:51 AM 15.1 °F - 12.0 °F 88% 30.23 in 8.0 mi Calm Calm - N/A   Overcast
7:51 AM 14.0 °F 3.9 °F 12.0 °F 92% 30.26 in 5.0 mi Variable 6.9 mph - N/A   Overcast
8:18 AM 14.0 °F - 12.2 °F 93% 30.20 in 2.0 mi Calm Calm - 0.00 in Snow Light Snow
8:51 AM 15.1 °F - 12.0 °F 88% 30.29 in 2.5 mi Calm Calm - 0.00 in   Overcast
9:09 AM 15.8 °F 8.6 °F 12.2 °F 86% 30.22 in 3.0 mi Variable 4.6 mph - N/A   Overcast
9:36 AM 15.8 °F 8.6 °F 12.2 °F 86% 30.23 in 2.0 mi WSW 4.6 mph - 0.00 in Snow Light Snow
9:51 AM 15.1 °F 6.4 °F 10.9 °F 84% 30.31 in 2.5 mi West 5.8 mph - 0.00 in   Overcast
10:04 AM 15.8 °F 10.2 °F 10.4 °F 79% 30.24 in 1.5 mi Variable 3.5 mph - N/A   Overcast
10:19 AM 15.8 °F 6.1 °F 10.4 °F 79% 30.25 in 2.0 mi SW 6.9 mph - 0.00 in Snow Light Snow
10:33 AM 15.8 °F 8.6 °F 10.4 °F 79% 30.25 in 1.5 mi WSW 4.6 mph - 0.00 in Snow Light Snow
10:51 AM 16.0 °F 6.3 °F 10.9 °F 81% 30.33 in 3.0 mi SW 6.9 mph - 0.00 in Snow Light Snow
11:51 AM 16.0 °F 8.8 °F 10.9 °F 81% 30.32 in 7.0 mi Variable 4.6 mph - 0.00 in   Overcast
12:51 PM 16.0 °F 5.3 °F 10.9 °F 81% 30.30 in 10.0 mi WSW 8.1 mph - N/A   Scattered Clouds
1:51 PM 19.0 °F 10.0 °F 14.0 °F 81% 30.30 in 10.0 mi SW 6.9 mph - N/A   Clear
2:51 PM 19.9 °F 9.3 °F 12.9 °F 74% 30.32 in 10.0 mi WSW 9.2 mph - N/A   Clear
3:51 PM 19.9 °F 12.1 °F 12.9 °F 74% 30.31 in 10.0 mi SW 5.8 mph - N/A   Clear
4:51 PM 14.0 °F - 10.9 °F 88% 30.30 in 10.0 mi Calm Calm - N/A   Clear
5:51 PM 10.0 °F - 8.1 °F 92% 30.30 in 2.0 mi Calm Calm - N/A   Clear
6:04 PM 10.4 °F - 6.8 °F 85% 30.19 in 10.0 mi Calm Calm - N/A   Clear
6:51 PM 6.1 °F -0.9 °F 3.9 °F 91% 30.29 in 10.0 mi South 3.5 mph - N/A   Clear
7:51 PM 14.0 °F -0.2 °F 10.9 °F 88% 30.27 in 10.0 mi SW 12.7 mph - N/A   Clear
8:23 PM 15.8 °F 0.9 °F 12.2 °F 86% 30.16 in 10.0 mi SW 15.0 mph - N/A   Mostly Cloudy
8:51 PM 16.0 °F 3.6 °F 14.0 °F 92% 30.25 in 10.0 mi SW 10.4 mph - N/A   Overcast
9:51 PM 15.1 °F 5.2 °F 12.9 °F 91% 30.23 in 10.0 mi SW 6.9 mph - N/A   Partly Cloudy
10:51 PM 15.1 °F - 12.0 °F 88% 30.22 in 10.0 mi Calm Calm - N/A   Clear
11:51 PM 16.0 °F 2.9 °F 14.0 °F 92% 30.18 in 10.0 mi SSW 11.5 mph - N/A   Clear